Lufkin, TX

2:55 PM CST on December 05, 2019 (GMT -0600)
Angelina County

Weather History for KLFK - October, 2019

Change the Weather History Date:

Saturday, October 19, 2019

  Actual Average Record
Temperature  
Mean Temperature 70 °F 67 °F  
Max Temperature 86 °F 79 °F 96 °F (1920)
Min Temperature 54 °F 55 °F 28 °F (1948)
Degree Days  
Heating Degree Days 0 2  
Month to date heating degree days 24 24  
Since 1 July heating degree days 24 28  
Cooling Degree Days 5 4  
Month to date cooling degree days 148 109  
Year to date cooling degree days 2612 2506  
Growing Degree Days 20 (Base 50)    
Moisture  
Dew Point 63 °F    
Average Humidity 79    
Maximum Humidity 93    
Minimum Humidity 57    
Precipitation  
Precipitation 0.00 in 0.17 in 2.61 in (1998)
Month to date precipitation 2.57 2.70  
Year to date precipitation 35.56 37.37  
Snow  
Snow 0.00 in - - ()
Month to date snowfall 0.0  
Since 1 July snowfall 0.0  
Since 1 September snowfall 0.0  
Snow Depth 0.00 in    
Sea Level Pressure  
Sea Level Pressure 29.75 in    
Wind  
Wind Speed 3 mph ()    
Max Wind Speed 13 mph    
Max Gust Speed 17 mph    
Visibility 9.9 miles    
Events      
T = Trace of Precipitation, MM = Missing Value Source: Averaged Metar Reports

Daily Weather History Graph

Daily Weather History Graph

Search for Another Location

Airport or City:

Astronomy

Oct. 19, 2019 Rise Set
Actual Time 7:24 AM CDT 6:42 PM CDT
Civil Twilight 6:59 AM CDT 7:07 PM CDT
Nautical Twilight 6:31 AM CDT 7:35 PM CDT
Astronomical Twilight 6:03 AM CDT 8:03 PM CDT
Moon 11:08 PM CDT (10/19) 12:42 PM CDT (10/19)
Length of Visible Light 12h 07m
Length of Day
11h 18m
Waning Gibbous, 69% of the Moon is Illuminated
Oct 19
Waning Gibbous
Oct 21
Last Quarter
Oct 27
New
Nov 4
First Quarter
Nov 12
Full

Hourly Weather History & Observations

Time (CDT) Temp. Heat Index Dew Point Humidity Pressure Visibility Wind Dir Wind Speed Gust Speed Precip Events Conditions
12:53 AM 57.9 °F - 53.1 °F 84% 29.76 in 10.0 mi SE 5.8 mph - N/A   Partly Cloudy
1:53 AM 57.0 °F - 53.1 °F 87% 29.77 in 10.0 mi Calm Calm - N/A   Clear
2:53 AM 59.0 °F - 53.1 °F 81% 29.77 in 10.0 mi Calm Calm - N/A   Clear
3:53 AM 55.9 °F - 53.1 °F 90% 29.76 in 10.0 mi Calm Calm - N/A   Clear
4:53 AM 55.0 °F - 53.1 °F 93% 29.75 in 10.0 mi Calm Calm - N/A   Clear
5:22 AM 55.9 °F - 53.1 °F 90% 29.78 in 10.0 mi Calm Calm - N/A   Mostly Cloudy
5:40 AM 55.9 °F - 53.1 °F 90% 29.78 in 10.0 mi Calm Calm - N/A   Scattered Clouds
5:53 AM 55.9 °F - 53.1 °F 90% 29.77 in 10.0 mi Calm Calm - N/A   Partly Cloudy
6:53 AM 55.9 °F - 52.0 °F 87% 29.79 in 10.0 mi Calm Calm - N/A   Partly Cloudy
7:53 AM 55.9 °F - 53.1 °F 90% 29.79 in 10.0 mi ESE 3.5 mph - N/A   Clear
8:53 AM 61.0 °F - 54.0 °F 78% 29.79 in 10.0 mi SE 6.9 mph - N/A   Clear
9:53 AM 66.9 °F - 57.0 °F 70% 29.80 in 10.0 mi SSE 5.8 mph - N/A   Clear
10:53 AM 73.0 °F - 64.0 °F 73% 29.80 in 10.0 mi SW 3.5 mph - N/A   Scattered Clouds
11:53 AM 77.0 °F - 66.0 °F 69% 29.78 in 10.0 mi Calm Calm - N/A   Overcast
12:12 PM 78.1 °F - 66.9 °F 68% 29.79 in 10.0 mi SW 6.9 mph - N/A   Mostly Cloudy
12:53 PM 81.0 °F 84.1 °F 69.1 °F 67% 29.76 in 10.0 mi SW 8.1 mph - N/A   Overcast
1:53 PM 82.0 °F 85.5 °F 69.1 °F 65% 29.73 in 10.0 mi SW 8.1 mph - N/A   Overcast
2:19 PM 82.9 °F 87.0 °F 70.0 °F 65% 29.73 in 10.0 mi SSW 9.2 mph - N/A   Mostly Cloudy
2:53 PM 82.9 °F 86.5 °F 69.1 °F 63% 29.71 in 10.0 mi SSW 10.4 mph - N/A   Mostly Cloudy
3:53 PM 86.0 °F 90.7 °F 70.0 °F 59% 29.70 in 10.0 mi South 9.2 mph - N/A   Scattered Clouds
4:53 PM 84.9 °F 89.4 °F 70.0 °F 61% 29.70 in 10.0 mi Variable 3.5 mph - N/A   Scattered Clouds
5:53 PM 84.0 °F 89.0 °F 71.1 °F 65% 29.70 in 10.0 mi SSE 5.8 mph - N/A   Clear
6:53 PM 78.1 °F - 72.0 °F 81% 29.71 in 10.0 mi ESE 4.6 mph - N/A   Partly Cloudy
7:53 PM 75.0 °F - 72.0 °F 90% 29.72 in 10.0 mi SE 4.6 mph - N/A   Clear
8:53 PM 75.0 °F - 71.1 °F 87% 29.73 in 10.0 mi SE 5.8 mph - N/A   Clear
9:53 PM 73.9 °F - 71.1 °F 91% 29.74 in 10.0 mi SE 4.6 mph - N/A   Clear
10:53 PM 73.0 °F - 70.0 °F 90% 29.75 in 10.0 mi SSE 4.6 mph - N/A   Clear
11:53 PM 72.0 °F - 70.0 °F 93% 29.75 in 7.0 mi SSE 4.6 mph - N/A   Clear